Cloud_Cover
100 85 40 100 100 100 100 100 98 9 0 0 0 0 0 0 0 15 0 0 0 0 0 0 0 0 0 0 0 0 0 0 5 2 1 0 2 4 3 4 4 5 38 5 30 61 31 22 6 86 37 9 6 100
82 6 5 23 77 79 100 100 53 0 0 0 0 0 0 0 0 0 0 0 0 0 0 0 0 0 0 0 0 0 0 5 5 5 5 5 6 84 5 49 5 50 5 64 24 10 5 5 77 37 5 78 75 53
2 5 5 5 22 58 73 61 14 6 0 0 0 1 0 0 0 19 20 0 0 0 0 0 0 0 0 0 0 0 0 0 2 3 4 5 5 4 8 5 48 95 62 6 38 100 14 5 10 10 5 90 99 96
4 3 4 5 6 5 63 67 5 3 2 4 5 0 0 0 0 3 15 0 0 0 0 0 0 0 0 0 0 2 1 2 8 4 4 5 5 4 1 2 15 77 98 22 34 29 73 97 40 50 50 27 82 91
1 1 5 5 5 5 5 4 5 8 5 5 4 0 0 0 0 4 20 0 0 0 0 0 0 0 0 1 4 5 1 2 5 5 0 0 0 0 0 3 0 0 2 2 5 54 12 87 100 95 84 53 14 95
5 10 25 11 8 22 5 10 5 5 5 4 1 0 0 0 0 0 0 0 53 0 0 6 0 0 5 5 5 5 5 5 5 5 5 2 4 20 24 5 1 0 1 5 3 0 0 2 6 11 7 7 5 5
76 60 57 72 55 33 5 5 5 5 4 0 0 0 0 0 10 0 0 0 0 0 32 0 2 5 10 53 90 5 77 5 5 5 5 5 5 5 5 4 0 0 0 0 0 2 0 0 0 3 4 5 5 5
56 56 63 61 25 5 5 5 5 0 0 0 0 0 0 0 6 13 0 0 0 0 8 8 3 0 15 49 90 100 78 5 5 5 5 5 5 51 5 6 31 24 5 5 5 4 3 2 0 0 0 0 0 0
58 97 38 59 73 5 5 5 5 5 4 0 2 0 0 0 0 0 0 0 0 0 0 15 0 1 5 56 6 93 100 100 100 86 78 81 97 92 100 100 100 100 100 100 100 83 61 94 98 20 5 5 4 0
100 100 100 100 48 5 6 5 5 5 5 5 5 5 0 3 5 2 28 66 0 0 5 5 5 17 5 5 5 90 99 88 100 100 99 100 100 100 100 100 100 100 100 100 100 100 79 100 91 9 5 3 0 0
100 100 100 100 58 93 98 96 44 12 28 5 5 5 4 5 5 27 61 4 5 5 7 13 30 7 5 5 5 40 75 100 100 98 100 100 100 100 100 100 100 100 100 100 100 100 100 100 100 90 26 5 5 3
100 100 100 99 96 100 96 100 99 94 80 45 75 18 5 26 28 42 13 8 5 15 88 6 9 5 5 5 16 100 100 79 92 80 100 100 100 100 100 100 100 100 100 100 100 100 48 95 100 100 67 58 13 9
100 100 100 100 99 100 91 100 100 100 100 100 96 46 11 5 29 5 30 29 94 81 99 68 82 6 17 6 59 100 68 99 76 87 100 98 100 100 100 100 100 100 98 100 100 99 97 100 100 100 100 100 100 99
100 100 100 100 100 96 100 100 100 100 100 100 100 95 15 26 17 5 6 1 5 3 5 45 16 9 43 33 97 79 76 98 100 96 100 100 100 100 100 100 100 100 100 100 100 100 100 100 100 100 99 100 100 100
100 100 100 100 100 100 100 100 100 100 100 100 100 100 10 43 14 84 40 81 11 1 4 11 8 78 67 86 100 100 82 100 100 100 100 100 100 100 100 100 100 100 100 100 100 100 100 100 100 100 100 100 100 100
100 100 100 100 100 100 100 100 100 100 100 99 84 81 5 10 24 53 91 88 59 5 2 30 29 65 96 99 100 100 100 100 100 100 100 100 100 100 100 100 100 100 100 100 100 100 100 100 90 100 100 100 100 100
100 100 100 100 100 100 100 100 100 100 93 30 65 6 5 5 5 33 16 6 80 12 5 10 95 100 76 100 100 99 99 100 100 100 100 100 100 100 100 100 100 100 100 100 100 100 100 100 100 100 100 100 100 100
100 100 100 100 100 100 100 100 100 92 98 17 5 7 46 5 5 5 13 95 56 62 12 33 48 6 95 100 98 100 100 100 100 100 100 100 100 100 100 100 100 100 100 100 100 100 100 100 100 100 100 100 100 100
100 100 100 100 100 100 100 100 92 32 5 5 6 47 58 50 55 45 71 89 42 5 5 5 9 6 51 98 100 100 100 100 99 94 100 100 100 100 100 100 100 100 100 100 100 100 100 100 100 100 100 100 100 100
100 100 100 100 100 100 100 92 43 13 6 40 97 100 68 47 8 27 24 78 81 12 5 5 5 10 55 24 100 100 100 95 100 100 100 100 100 100 100 100 100 100 100 100 93 50 100 100 100 100 100 100 100 100
72 100 100 94 74 15 72 96 100 100 100 100 100 91 52 13 10 70 40 4 5 55 5 5 68 100 9 53 99 100 100 95 100 93 100 100 100 100 72 98 100 82 77 54 60 59 100 100 100 100 100 100 100 100
100 100 98 87 73 88 100 100 100 100 100 100 76 38 10 21 56 85 38 6 2 9 5 31 15 27 29 37 97 100 100 100 100 100 100 100 100 100 100 100 100 52 62 22 48 52 98 100 100 100 100 100 100 100
100 100 100 100 100 100 100 100 100 100 98 76 69 60 28 34 70 49 55 5 5 4 6 12 5 5 94 100 84 100 100 98 100 100 81 100 100 100 100 100 100 97 71 65 26 49 82 100 100 100 100 100 100 100
100 100 100 100 100 100 100 100 100 95 28 36 97 72 39 45 62 29 21 5 9 5 24 31 41 36 100 100 100 100 100 100 98 100 16 57 71 78 74 68 15 99 79 26 35 9 26 60 100 100 100 100 86 100
100 100 100 100 100 98 71 68 89 89 67 72 77 67 43 96 43 16 5 5 5 61 42 67 90 74 58 100 100 100 100 100 100 22 52 98 100 100 98 42 17 34 40 8 5 5 5 5 41 99 100 100 97 92
100 100 100 93 51 38 58 98 50 51 44 98 87 96 100 100 100 64 44 68 22 20 98 87 100 55 64 99 100 98 100 100 100 99 7 31 71 92 47 100 100 100 95 96 95 63 9 5 5 5 16 82 99 100
100 99 92 48 36 63 70 62 99 94 26 5 5 49 90 56 84 72 88 17 47 100 97 100 100 27 98 100 100 97 100 100 100 100 18 56 85 100 99 100 100 100 74 5 6 30 22 21 7 7 6 5 5 7
97 44 15 11 5 32 64 74 72 13 28 7 15 78 100 100 100 60 91 59 52 57 100 100 73 32 90 100 93 100 100 100 100 87 88 40 51 100 100 100 100 83 5 5 5 5 5 2 0 0 3 4 5 5
24 5 14 52 6 49 80 84 89 92 56 40 51 87 78 94 67 98 96 18 43 61 78 65 48 100 100 100 100 100 100 100 100 98 92 99 100 100 78 90 100 88 58 11 5 5 2 5 3 0 0 0 0 0
19 5 5 20 73 100 97 63 12 24 100 99 84 41 38 57 42 14 5 8 39 77 95 55 37 100 100 100 100 100 100 97 100 100 100 74 89 65 65 61 45 28 14 6 4 1 0 0 0 0 0 0 0 0
60 75 100 88 90 80 64 100 92 8 7 10 59 37 29 34 59 84 88 84 78 42 48 61 91 100 100 100 100 100 86 78 100 94 96 100 100 100 100 100 65 33 20 11 5 3 0 0 0 0 0 0 0 0
94 59 25 27 36 19 5 6 6 41 56 89 100 100 100 100 73 22 62 53 26 47 66 84 100 100 100 100 100 91 80 85 99 100 100 100 100 78 62 46 10 5 2 0 0 0 0 0 0 0 0 0 0 0
45 47 5 5 18 79 100 100 100 100 100 100 100 100 100 100 97 100 100 80 66 60 98 98 86 82 98 100 100 100 100 100 100 100 80 31 26 28 7 5 5 5 0 0 0 0 0 0 0 0 0 0 0 0